This is the latest recevied weather packets stored in our database for station/object IZ0VWB-3. If no packets are shown the sender has not sent any weather packets the latest 10 day(s).
| Time | Temp. | Humidity | Pressure | Rain* | Wind** | Luminosity | Snow |
|---|---|---|---|---|---|---|---|
| 1777766316 | 11.11° C | 70% | 1008.2 hPa | 0 mm | - | - | - |
| 1777765716 | 11.11° C | 70% | 1008.4 hPa | 0 mm | - | - | - |
| 1777765117 | 11.67° C | 69% | 1008.4 hPa | 0 mm | - | - | - |
| 1777764517 | 11.67° C | 69% | 1008.4 hPa | 0 mm | - | - | - |
| 1777763916 | 11.67° C | 68% | 1008.5 hPa | 0 mm | - | - | - |
| 1777763317 | 11.67° C | 68% | 1008.6 hPa | 0 mm | - | - | - |
| 1777762717 | 11.67° C | 67% | 1008.6 hPa | 0 mm | - | - | - |
| 1777762117 | 12.22° C | 67% | 1008.7 hPa | 0 mm | - | - | - |
| 1777761516 | 11.67° C | 67% | 1008.8 hPa | 0 mm | - | - | - |
| 1777760916 | 11.67° C | 66% | 1008.7 hPa | 0 mm | - | - | - |
| 1777760316 | 11.67° C | 64% | 1008.7 hPa | 0 mm | - | - | - |
| 1777759716 | 11.67° C | 64% | 1008.7 hPa | 0 mm | - | - | - |
| 1777759116 | 11.67° C | 63% | 1008.7 hPa | 0 mm | - | - | - |
| 1777758515 | 12.22° C | 62% | 1008.8 hPa | 0 mm | - | - | - |
| 1777757916 | 12.22° C | 61% | 1008.7 hPa | 0 mm | - | - | - |
| 1777757317 | 12.78° C | 61% | 1008.5 hPa | 0 mm | - | - | - |
| 1777756715 | 13.33° C | 61% | 1008.5 hPa | 0 mm | - | - | - |
| 1777756119 | 12.78° C | 61% | 1008.5 hPa | 0 mm | - | - | - |
| 1777755519 | 12.78° C | 60% | 1008.5 hPa | 0 mm | - | - | - |
| 1777754918 | 13.33° C | 61% | 1008.4 hPa | 0 mm | - | - | - |
| 1777754319 | 13.33° C | 57% | 1008.2 hPa | 0 mm | - | - | - |
| 1777753720 | 13.33° C | 56% | 1008.3 hPa | 0 mm | - | - | - |
| 1777753118 | 13.33° C | 55% | 1008.5 hPa | 0 mm | - | - | - |
| 1777752519 | 14.44° C | 52% | 1008.5 hPa | 0 mm | - | - | - |
| 1777751919 | 15° C | 51% | 1008.3 hPa | 0 mm | - | - | - |
* Rain latest hour (hover to see other rain measurements)
** Current wind speed in m/s (hover to see current wind gust speed)